User: anonymous
Location: Caltech
(34.1382°N, 118.1253°W)
Time: 11:41:19
(UTC-07:00)
Language:

Cosmos 1626 - Orbit

View from above orbital plane
View from above orbital plane
View from above satellite
View from above satellite

Ground track
Ground track

The orbit data is extracted from the following two-line orbital elements,

1 15494U 85009A   14107.98195318  .00007284  00000-0  39269-3 0  5384
2 15494 082.4813 321.0885 0004185 115.9222 015.6203 15.14627673593206
Epoch (UTC): 17 April 2014 23:34:00
Eccentricity: 0.0004185
inclination: 82.4813°
perigee height: 519 km
apogee height: 525 km
right ascension of ascending node: 321.0885°
argument of perigee: 115.9222°
revolutions per day: 15.14627673
mean anomaly at epoch: 15.6203°
orbit number at epoch: 59320

The dashed part of the orbit path shows where the satellite is in the earth's shadow,  

DLR